TimeHAST,TemperatureF,Dew PointF,Humidity,Sea Level PressureIn,VisibilityMPH,Wind Direction,Wind SpeedMPH,Gust SpeedMPH,PrecipitationIn,Events,Conditions,WindDirDegrees,DateUTC
12:16 AM,44.6,41.0,87,30.57,5.0,WSW,23.0,35.7,N/A,,Overcast,250,2013-11-12 10:16:00
12:36 AM,46.4,42.8,87,30.56,5.0,WSW,31.1,38.0,N/A,,Overcast,250,2013-11-12 10:36:00
12:56 AM,46.4,42.8,87,30.57,6.0,WSW,29.9,38.0,N/A,,Overcast,250,2013-11-12 10:56:00
1:16 AM,44.6,42.8,93,30.56,6.0,WSW,28.8,35.7,N/A,,Overcast,250,2013-11-12 11:16:00
1:36 AM,44.6,42.8,93,30.56,5.0,WSW,23.0,28.8,N/A,,Overcast,250,2013-11-12 11:36:00
1:56 AM,46.4,42.8,87,30.56,5.0,WSW,24.2,27.6,N/A,,Overcast,250,2013-11-12 11:56:00
2:16 AM,46.4,42.8,87,30.56,7.0,WSW,23.0,-,N/A,,Overcast,250,2013-11-12 12:16:00
2:36 AM,46.4,42.8,87,30.56,10.0,WSW,17.3,20.7,N/A,,Overcast,250,2013-11-12 12:36:00
2:56 AM,46.4,42.8,87,30.57,9.0,WSW,15.0,-,N/A,,Overcast,240,2013-11-12 12:56:00
3:16 AM,46.4,42.8,87,30.56,6.0,WSW,12.7,-,N/A,,Overcast,250,2013-11-12 13:16:00
3:36 AM,46.4,42.8,87,30.56,5.0,WSW,10.4,-,N/A,,Overcast,250,2013-11-12 13:36:00
3:56 AM,44.6,42.8,93,30.56,10.0,WSW,13.8,-,N/A,,Overcast,240,2013-11-12 13:56:00
4:16 AM,46.4,42.8,87,30.55,10.0,WSW,16.1,-,N/A,,Overcast,250,2013-11-12 14:16:00
4:36 AM,46.4,42.8,87,30.56,10.0,WSW,17.3,-,N/A,,Overcast,240,2013-11-12 14:36:00
4:56 AM,46.4,42.8,87,30.56,3.0,SW,18.4,21.9,N/A,,Overcast,230,2013-11-12 14:56:00
5:16 AM,46.4,42.8,87,30.55,2.0,SW,19.6,26.5,N/A,,Overcast,230,2013-11-12 15:16:00
5:36 AM,44.6,42.8,93,30.55,1.5,WSW,17.3,-,N/A,,Overcast,240,2013-11-12 15:36:00
5:56 AM,46.4,42.8,87,30.54,2.5,WSW,13.8,19.6,N/A,,Overcast,250,2013-11-12 15:56:00
6:16 AM,46.4,42.8,87,30.54,6.0,WSW,11.5,19.6,N/A,,Overcast,240,2013-11-12 16:16:00
6:36 AM,46.4,44.6,93,30.53,6.0,WSW,12.7,-,N/A,,Overcast,250,2013-11-12 16:36:00
6:56 AM,46.4,44.6,93,30.53,5.0,WSW,16.1,24.2,N/A,,Overcast,250,2013-11-12 16:56:00
7:16 AM,46.4,44.6,93,30.52,7.0,WSW,17.3,25.3,N/A,,Overcast,250,2013-11-12 17:16:00
7:36 AM,46.4,44.6,93,30.52,6.0,WSW,16.1,26.5,N/A,,Overcast,250,2013-11-12 17:36:00
7:56 AM,46.4,42.8,87,30.51,8.0,WSW,18.4,26.5,N/A,,Overcast,240,2013-11-12 17:56:00
8:16 AM,46.4,42.8,87,30.51,7.0,WSW,21.9,-,N/A,,Overcast,240,2013-11-12 18:16:00
8:36 AM,46.4,42.8,87,30.50,7.0,WSW,24.2,29.9,N/A,,Overcast,240,2013-11-12 18:36:00
8:56 AM,46.4,42.8,87,30.51,6.0,WSW,25.3,32.2,N/A,,Overcast,250,2013-11-12 18:56:00
9:16 AM,46.4,42.8,87,30.52,5.0,WSW,19.6,28.8,N/A,,Overcast,240,2013-11-12 19:16:00
9:36 AM,46.4,42.8,87,30.52,4.0,WSW,20.7,-,N/A,,Overcast,240,2013-11-12 19:36:00
9:56 AM,46.4,42.8,87,30.53,5.0,WSW,19.6,25.3,N/A,,Overcast,250,2013-11-12 19:56:00
10:16 AM,46.4,42.8,87,30.53,5.0,WSW,19.6,23.0,N/A,,Overcast,250,2013-11-12 20:16:00
10:36 AM,46.4,42.8,87,30.52,5.0,WSW,23.0,26.5,N/A,,Overcast,250,2013-11-12 20:36:00
10:56 AM,46.4,42.8,87,30.53,5.0,WSW,23.0,28.8,N/A,,Overcast,250,2013-11-12 20:56:00
11:16 AM,46.4,42.8,87,30.52,5.0,WSW,19.6,24.2,N/A,,Overcast,250,2013-11-12 21:16:00
11:36 AM,48.2,44.6,87,30.52,7.0,WSW,20.7,32.2,N/A,,Overcast,250,2013-11-12 21:36:00
11:56 AM,46.4,42.8,87,30.52,6.0,West,20.7,29.9,N/A,,Overcast,260,2013-11-12 21:56:00
12:16 PM,48.2,44.6,87,30.52,7.0,WSW,16.1,24.2,N/A,,Overcast,250,2013-11-12 22:16:00
12:36 PM,48.2,44.6,87,30.52,7.0,West,18.4,25.3,N/A,,Overcast,260,2013-11-12 22:36:00
12:56 PM,46.4,42.8,87,30.51,6.0,West,20.7,29.9,N/A,,Overcast,260,2013-11-12 22:56:00
1:16 PM,46.4,42.8,87,30.51,5.0,WSW,17.3,25.3,N/A,,Overcast,250,2013-11-12 23:16:00
1:36 PM,46.4,42.8,87,30.50,2.5,WSW,25.3,31.1,N/A,,Overcast,250,2013-11-12 23:36:00
1:56 PM,46.4,42.8,87,30.48,3.0,WSW,31.1,38.0,N/A,,Overcast,250,2013-11-12 23:56:00
2:16 PM,46.4,42.8,87,30.49,1.0,WSW,28.8,39.1,N/A,,Overcast,250,2013-11-13 00:16:00
2:36 PM,46.4,42.8,87,30.49,1.8,WSW,28.8,35.7,N/A,,Overcast,240,2013-11-13 00:36:00
2:56 PM,46.4,42.8,87,30.50,1.5,WSW,25.3,32.2,N/A,,Overcast,240,2013-11-13 00:56:00
3:16 PM,46.4,42.8,87,30.50,1.5,WSW,21.9,-,N/A,,Overcast,240,2013-11-13 01:16:00
3:36 PM,46.4,44.6,93,30.49,2.5,WSW,25.3,32.2,N/A,,Overcast,240,2013-11-13 01:36:00
3:56 PM,48.2,44.6,87,30.48,6.0,WSW,33.4,41.4,N/A,,Overcast,240,2013-11-13 01:56:00
4:16 PM,48.2,44.6,87,30.48,6.0,WSW,28.8,36.8,N/A,,Overcast,240,2013-11-13 02:16:00
4:36 PM,46.4,44.6,93,30.48,5.0,WSW,31.1,40.3,N/A,,Overcast,240,2013-11-13 02:36:00
4:56 PM,48.2,44.6,87,30.49,5.0,SW,33.4,40.3,N/A,,Overcast,230,2013-11-13 02:56:00
5:16 PM,48.2,44.6,87,30.50,4.0,SW,32.2,39.1,N/A,,Overcast,230,2013-11-13 03:16:00
5:36 PM,46.4,44.6,93,30.50,3.0,SW,28.8,36.8,N/A,,Overcast,230,2013-11-13 03:36:00
5:56 PM,46.4,44.6,93,30.51,3.0,SW,31.1,38.0,N/A,,Overcast,230,2013-11-13 03:56:00
6:16 PM,46.4,42.8,87,30.51,3.0,SW,26.5,33.4,N/A,,Overcast,230,2013-11-13 04:16:00
6:36 PM,46.4,42.8,87,30.51,7.0,SW,31.1,-,N/A,,Overcast,230,2013-11-13 04:36:00
6:56 PM,48.2,44.6,87,30.50,10.0,SW,21.9,31.1,N/A,,Overcast,220,2013-11-13 04:56:00
7:16 PM,50.0,44.6,82,30.49,10.0,SW,24.2,28.8,N/A,,Overcast,230,2013-11-13 05:16:00
7:36 PM,50.0,44.6,82,30.50,10.0,WSW,27.6,34.5,N/A,,Overcast,240,2013-11-13 05:36:00
7:56 PM,50.0,44.6,82,30.51,10.0,WSW,26.5,33.4,N/A,,Overcast,240,2013-11-13 05:56:00
8:16 PM,50.0,44.6,82,30.51,10.0,WSW,21.9,31.1,N/A,,Overcast,240,2013-11-13 06:16:00
8:36 PM,50.0,44.6,82,30.51,10.0,SW,12.7,21.9,N/A,,Overcast,230,2013-11-13 06:36:00
8:56 PM,50.0,44.6,82,30.51,10.0,SW,19.6,-,N/A,,Overcast,220,2013-11-13 06:56:00
9:16 PM,50.0,44.6,82,30.51,10.0,SSW,18.4,-,N/A,,Overcast,210,2013-11-13 07:16:00
9:36 PM,50.0,42.8,76,30.52,10.0,SW,8.1,-,N/A,,Overcast,230,2013-11-13 07:36:00
9:56 PM,50.0,44.6,82,30.52,10.0,South,15.0,-,N/A,,Overcast,190,2013-11-13 07:56:00
10:16 PM,50.0,42.8,76,30.51,10.0,South,15.0,20.7,N/A,,Overcast,170,2013-11-13 08:16:00
10:36 PM,48.2,42.8,82,30.52,10.0,South,10.4,-,N/A,,Overcast,170,2013-11-13 08:36:00
10:56 PM,48.2,42.8,82,30.53,10.0,SSE,11.5,-,N/A,,Overcast,160,2013-11-13 08:56:00
11:16 PM,48.2,42.8,82,30.53,10.0,SSE,11.5,-,N/A,,Overcast,150,2013-11-13 09:16:00
11:36 PM,48.2,42.8,82,30.52,10.0,SE,11.5,17.3,N/A,,Overcast,140,2013-11-13 09:36:00
11:56 PM,46.4,42.8,87,30.52,9.0,SSE,13.8,-,N/A,,Overcast,160,2013-11-13 09:56:00